Location: Brno
(49.2000°N, 16.6330°E)
Time: 23:45:35
(UTC+01:00)

Cosmos 1603 - Visible Passes

Search period start: 25 February 2017 00:00
Search period end: 07 March 2017 00:00
Orbit: 832 x 859 km, 71.0° (Epoch: 25 February)

Date Brightness Start Highest point End Pass type
(mag) Time Alt. Az. Time Alt. Az. Time Alt. Az.
25 Feb 5.7 18:47:20 10° N 18:49:17 12° NNE 18:51:14 10° NE visible
25 Feb 5.0 20:29:58 10° NNW 20:33:28 30° NNE 20:33:28 30° NNE visible
25 Feb 6.2 22:14:04 10° NW 22:15:22 17° NW 22:15:22 17° NW visible
26 Feb 5.7 18:33:28 10° N 18:35:19 11° NNE 18:37:10 10° NE visible
26 Feb 4.8 20:16:04 10° NNW 20:20:05 32° NNE 20:20:05 32° NNE visible
26 Feb 5.9 22:00:08 10° NW 22:02:00 21° NW 22:02:00 21° NW visible
27 Feb 5.7 18:19:37 10° N 18:21:22 11° NNE 18:23:07 10° NE visible
27 Feb 4.6 20:02:09 10° NNW 20:06:45 34° NE 20:06:45 34° NE visible
27 Feb 5.6 21:46:13 10° NW 21:48:40 25° NW 21:48:40 25° NW visible
28 Feb 5.7 18:05:47 10° N 18:07:25 11° NNE 18:09:03 10° NE visible
28 Feb 4.5 19:48:15 10° NNW 19:53:26 34° NE 19:53:27 34° NE visible
28 Feb 5.3 21:32:17 10° NW 21:35:22 31° NW 21:35:22 31° NW visible
01 Mar 4.5 19:34:21 10° NNW 19:39:30 33° NE 19:40:11 32° ENE visible
01 Mar 4.9 21:18:21 10° NW 21:22:06 38° WNW 21:22:06 38° WNW visible
02 Mar 4.5 19:20:27 10° NNW 19:25:34 33° NE 19:26:59 29° ENE visible
02 Mar 4.5 21:04:26 10° NW 21:08:54 47° WNW 21:08:54 47° WNW visible
03 Mar 4.6 19:06:33 10° NNW 19:11:38 32° NE 19:13:50 24° E visible
03 Mar 4.2 20:50:30 10° NW 20:55:45 55° W 20:55:45 55° W visible
04 Mar 4.6 18:52:39 10° NNW 18:57:42 31° NE 19:00:44 20° E visible
04 Mar 4.1 20:36:35 10° NW 20:42:10 57° WSW 20:42:40 55° SW visible
05 Mar 4.6 18:38:45 10° NNW 18:43:46 31° NE 18:47:44 15° ESE visible
05 Mar 4.1 20:22:39 10° NW 20:28:16 59° WSW 20:29:40 46° SSW visible
06 Mar 4.6 18:24:50 10° NNW 18:29:50 30° NE 18:34:50 10° ESE visible
06 Mar 4.1 20:08:44 10° NW 20:14:21 61° WSW 20:16:45 34° S visible
